Location: Kalberh�ni
(46.4610°N, 7.2453°E)
Time: 12:50:27
(UTC+00:00)

Meteor 2-1 Rocket - Visible Passes

Search period start: 23 October 2021 00:00
Search period end: 02 November 2021 00:00
Orbit: 829 x 907 km, 81.3° (Epoch: 22 October)

Date Brightness Start Highest point End Pass type
(mag) Time Alt. Az. Time Alt. Az. Time Alt. Az.
23 Oct 6.9 04:47:25 10° NNE 04:50:56 17° ENE 04:54:27 10° ESE visible
24 Oct 6.9 04:40:37 10° NNE 04:44:12 17° ENE 04:47:48 10° ESE visible
25 Oct 6.9 04:33:50 10° NNE 04:37:29 18° ENE 04:41:08 10° ESE visible
25 Oct 6.7 19:41:49 10° N 19:41:49 10° N 19:41:53 10° N visible
26 Oct 6.9 04:27:03 10° NNE 04:30:45 18° ENE 04:34:28 10° ESE visible
26 Oct6.517:52:13NNE17:52:13NNE17:41:58SEvisible
26 Oct 6.5 19:24:01 10° SSW 19:34:33 13° N 19:35:08 10° N visible
27 Oct 6.9 04:20:16 10° NNE 04:24:02 18° ENE 04:27:48 10° ESE visible
27 Oct 5.8 17:36:26 10° SE 17:44:33 - NE 17:37:58 15° ESE visible
27 Oct 5.2 19:17:17 10° SSW 19:26:50 19° N 19:28:23 10° N visible
27 Oct7.221:09:05NW21:09:05NW21:03:12Wvisible
28 Oct 6.9 04:13:29 10° NNE 04:17:19 19° ENE 04:21:08 10° ESE visible
28 Oct 5.4 17:29:38 10° SE 17:33:23 19° E 17:37:07 10° NE visible
28 Oct 4.5 19:10:34 10° SSW 19:16:07 65° WNW 19:21:38 10° N visible
28 Oct 7.1 20:59:37 10° WNW 21:00:35 10° NW 21:01:34 10° NW visible
29 Oct 6.8 04:06:42 10° NNE 04:10:35 19° ENE 04:14:29 10° ESE visible
29 Oct 5.4 17:22:50 10° SE 17:26:37 19° E 17:30:25 10° NE visible
29 Oct 4.5 19:03:50 10° SSW 19:09:22 64° WNW 19:14:53 10° N visible
29 Oct 7.2 20:53:13 10° WNW 20:53:52 10° NW 20:54:31 10° NW visible
30 Oct 6.8 03:59:55 10° NNE 04:03:51 19° ENE 04:07:48 10° ESE visible
30 Oct 5.4 17:16:02 10° SE 17:19:53 19° E 17:23:42 10° NE visible
30 Oct 4.5 18:57:06 10° SSW 19:02:38 62° WNW 19:08:08 10° N visible
31 Oct 6.7 03:53:09 10° NNE 03:57:08 20° ENE 04:01:08 10° ESE visible
31 Oct 4.2 05:35:27 10° NNW 05:40:58 68° W 05:46:34 10° S visible
31 Oct 5.4 17:09:14 10° SE 17:13:07 20° E 17:16:59 10° NE visible
31 Oct 4.6 18:50:23 10° SSW 18:55:53 61° WNW 19:01:23 10° N visible
01 Nov 6.7 03:46:22 10° NNE 03:50:25 20° ENE 03:54:27 10° ESE visible
01 Nov 4.2 05:28:42 10° NNW 05:34:14 66° W 05:39:49 10° S visible
01 Nov 5.3 17:02:27 10° SE 17:06:22 20° E 17:10:17 10° NE visible
01 Nov 4.6 18:43:40 10° SSW 18:49:09 60° WNW 18:54:38 10° N visible
